DMSP 5D-2 F13 DEB, 40677

Orbit data source: Space-Track

DMSP 5D-2 F13 DEB, 40677 is space debris in SSO originally from a launch on Fri, 24 Mar 1995 UTC launched from the Air Force Western Test Range (AFWTR). Debris objects in space refer to the collection of defunct objects orbiting the Earth. Examples of debris include non-operational satellites, rocket bodies, and fragments generated from explosions, collisions, or faulty payload assembly.

Loading next visibility...
Identifier
40677, 1995-015FR
Orbit
SSO
Country
Flag of USUS
Related business
Manufacturer
Unknown
Mission
Spacecraft
Bus & Motor
Unknown
Mass
Unknown
Launch date (UTC)
1995-03-24 (31 years ago)
Launch vehicle
Unknown
Launch site
Air Force Western Test Range (AFWTR)
Object type
Payload
Rocket body
Debris
Shape & HBR
Unknown shape, 0.1 m
Radar Cross Section
Small (<0.1 m²)

Expand to show TLE details & history
Last TLE update: 2 weeks ago

TLE from 2 weeks ago
0 DMSP 5D-2 F13 DEB
1 40677U 95015FR  26223.29611236  .00000234  00000-0  10976-3 0  9994
2 40677  98.5878 239.2600 0049538 103.1420 257.5295 14.28177311588295
Epoch: 2026-08-11T07:06Z
TLE epoch observation values (Epoch: 2026-08-11T07:06:24.107Z)
Latitude
-0.00013°
Longitude
172.89314°
Altitude
808.605 km
Speed
7.445 km/s
True Right ascension
15h 57m 02s
True Declination
0° 00' 00"
Sunlit
Object was in daylight at epoch
Visualization orbit readout
Latitude
Unknown
Longitude
Unknown
Altitude
Unknown
Speed
Unknown
Apparent Right ascension
Unknown
Apparent Declination
Unknown
Sunlit
N/A
Visualization observer readout
Local Sidereal Time
21:12:56
Azimuth
Unknown
Elevation
Unknown
Doppler factor
Unknown
Orbital elements
Apogee altitude
830.506 km
Perigee altitude
759.437 km
Semi-major axis
7,173.109 km
Eccentricity
0.00495
Inclination
98.5878°
RAAN
239.26°
Arg. of periapsis
103.142°
True anomaly
256.97598°
Mean anomaly
257.5295°
Eccentric anomaly
257.25266°
Mean motion
3.57258 °/min
Orbital period
100.77 mins
BSTAR
0.00010976
Loading maneuver chart data...
Computing Atmospheric mass density...

Documentation

Showing up to 5 results
|